Year,Month,Day,Hour,Minute,Value (Times are PST for temperature in C)
2016,11,09,00,00,13.00
2016,11,09,00,01,13.10
2016,11,09,00,02,13.00
2016,11,09,00,03,13.00
2016,11,09,00,04,13.10
2016,11,09,00,05,13.00
2016,11,09,00,06,13.00
2016,11,09,00,07,13.00
2016,11,09,00,08,13.00
2016,11,09,00,09,13.00
2016,11,09,00,10,13.00
2016,11,09,00,11,13.00
2016,11,09,00,12,13.00
2016,11,09,00,13,13.00
2016,11,09,00,14,13.00
2016,11,09,00,15,13.00
2016,11,09,00,16,13.00
2016,11,09,00,17,13.00
2016,11,09,00,18,13.00
2016,11,09,00,19,13.00
2016,11,09,00,20,13.00
2016,11,09,00,21,13.00
2016,11,09,00,22,13.00
2016,11,09,00,23,13.00
2016,11,09,00,24,13.00
2016,11,09,00,25,13.00
2016,11,09,00,26,13.00
2016,11,09,00,27,13.00
2016,11,09,00,28,13.10
2016,11,09,00,29,13.10
2016,11,09,00,30,13.10
2016,11,09,00,31,13.10
2016,11,09,00,32,13.10
2016,11,09,00,33,13.10
2016,11,09,00,34,13.10
2016,11,09,00,35,13.10
2016,11,09,00,36,13.10
2016,11,09,00,37,13.10
2016,11,09,00,38,13.10
2016,11,09,00,39,13.10
2016,11,09,00,40,13.10
2016,11,09,00,41,13.10
2016,11,09,00,42,13.10
2016,11,09,00,43,13.10
2016,11,09,00,44,13.10
2016,11,09,00,45,13.10
2016,11,09,00,46,13.10
2016,11,09,00,47,13.10
2016,11,09,00,48,13.10
2016,11,09,00,49,13.10
2016,11,09,00,50,13.00
2016,11,09,00,51,13.00
2016,11,09,00,52,13.00
2016,11,09,00,53,13.00
2016,11,09,00,54,13.00
2016,11,09,00,55,13.00
2016,11,09,00,56,13.00
2016,11,09,00,57,13.00
2016,11,09,00,58,13.00
2016,11,09,00,59,12.90
2016,11,09,01,00,13.00
2016,11,09,01,01,13.00
2016,11,09,01,02,13.00
2016,11,09,01,03,13.00
2016,11,09,01,04,13.00
2016,11,09,01,05,13.00
2016,11,09,01,06,13.00
2016,11,09,01,07,13.00
2016,11,09,01,08,13.00
2016,11,09,01,09,13.10
2016,11,09,01,10,13.10
2016,11,09,01,11,13.10
2016,11,09,01,12,13.10
2016,11,09,01,13,13.10
2016,11,09,01,14,13.10
2016,11,09,01,15,13.20
2016,11,09,01,16,13.20
2016,11,09,01,17,13.20
2016,11,09,01,18,13.20
2016,11,09,01,19,13.20
2016,11,09,01,20,13.20
2016,11,09,01,21,13.20
2016,11,09,01,22,13.20
2016,11,09,01,23,13.20
2016,11,09,01,24,13.20
2016,11,09,01,25,13.20
2016,11,09,01,26,13.20
2016,11,09,01,27,13.20
2016,11,09,01,28,13.20
2016,11,09,01,29,13.20
2016,11,09,01,30,13.20
2016,11,09,01,31,13.20
2016,11,09,01,32,13.20
2016,11,09,01,33,13.20
2016,11,09,01,34,13.20
2016,11,09,01,35,13.20
2016,11,09,01,36,13.10
2016,11,09,01,37,13.10
2016,11,09,01,38,13.10
2016,11,09,01,39,13.10
2016,11,09,01,40,13.10
2016,11,09,01,41,13.10
2016,11,09,01,42,13.10
2016,11,09,01,43,13.10
2016,11,09,01,44,13.10
2016,11,09,01,45,13.10
2016,11,09,01,46,13.10
2016,11,09,01,47,13.10
2016,11,09,01,48,13.10
2016,11,09,01,49,13.10
2016,11,09,01,50,13.10
2016,11,09,01,51,13.10
2016,11,09,01,52,13.10
2016,11,09,01,53,13.10
2016,11,09,01,54,13.20
2016,11,09,01,55,13.20
2016,11,09,01,56,13.20
2016,11,09,01,57,13.20
2016,11,09,01,58,13.20
2016,11,09,01,59,13.20
2016,11,09,02,00,13.20
2016,11,09,02,01,13.20
2016,11,09,02,02,13.20
2016,11,09,02,03,13.20
2016,11,09,02,04,13.20
2016,11,09,02,05,13.20
2016,11,09,02,06,13.20
2016,11,09,02,07,13.20
2016,11,09,02,08,13.20
2016,11,09,02,09,13.20
2016,11,09,02,10,13.20
2016,11,09,02,11,13.20
2016,11,09,02,12,13.20
2016,11,09,02,13,13.20
2016,11,09,02,14,13.20
2016,11,09,02,15,13.20
2016,11,09,02,16,13.20
2016,11,09,02,17,13.20
2016,11,09,02,18,13.20
2016,11,09,02,19,13.20
2016,11,09,02,20,13.20
2016,11,09,02,21,13.20
2016,11,09,02,22,13.20
2016,11,09,02,23,13.20
2016,11,09,02,24,13.20
2016,11,09,02,25,13.20
2016,11,09,02,26,13.20
2016,11,09,02,27,13.20
2016,11,09,02,28,13.10
2016,11,09,02,29,13.20
2016,11,09,02,30,13.20
2016,11,09,02,31,13.20
2016,11,09,02,32,13.10
2016,11,09,02,33,13.10
2016,11,09,02,34,13.10
2016,11,09,02,35,13.10
2016,11,09,02,36,13.10
2016,11,09,02,37,13.20
2016,11,09,02,38,13.20
2016,11,09,02,39,13.20
2016,11,09,02,40,13.20
2016,11,09,02,41,13.20
2016,11,09,02,42,13.20
2016,11,09,02,43,13.20
2016,11,09,02,44,13.20
2016,11,09,02,45,13.20
2016,11,09,02,46,13.20
2016,11,09,02,47,13.20
2016,11,09,02,48,13.20
2016,11,09,02,49,13.20
2016,11,09,02,50,13.20
2016,11,09,02,51,13.20
2016,11,09,02,52,13.20
2016,11,09,02,53,13.20
2016,11,09,02,54,13.10
2016,11,09,02,55,13.20
2016,11,09,02,56,13.20
2016,11,09,02,57,13.10
2016,11,09,02,58,13.20
2016,11,09,02,59,13.20
2016,11,09,03,00,13.20
2016,11,09,03,01,13.20
2016,11,09,03,02,13.10
2016,11,09,03,03,13.10
2016,11,09,03,04,13.10
2016,11,09,03,05,13.10
2016,11,09,03,06,13.10
2016,11,09,03,07,13.10
2016,11,09,03,08,13.10
2016,11,09,03,09,13.20
2016,11,09,03,10,13.10
2016,11,09,03,11,13.20
2016,11,09,03,12,13.20
2016,11,09,03,13,13.20
2016,11,09,03,14,13.20
2016,11,09,03,15,13.20
2016,11,09,03,16,13.20
2016,11,09,03,17,13.10
2016,11,09,03,18,13.10
2016,11,09,03,19,13.10
2016,11,09,03,20,13.10
2016,11,09,03,21,13.10
2016,11,09,03,22,13.10
2016,11,09,03,23,13.10
2016,11,09,03,24,13.10
2016,11,09,03,25,13.10
2016,11,09,03,26,13.10
2016,11,09,03,27,13.10
2016,11,09,03,28,13.10
2016,11,09,03,29,13.10
2016,11,09,03,30,13.20
2016,11,09,03,31,13.20
2016,11,09,03,32,13.20
2016,11,09,03,33,13.20
2016,11,09,03,34,13.20
2016,11,09,03,35,13.20
2016,11,09,03,36,13.20
2016,11,09,03,37,13.30
2016,11,09,03,38,13.30
2016,11,09,03,39,13.30
2016,11,09,03,40,13.20
2016,11,09,03,41,13.20
2016,11,09,03,42,13.20
2016,11,09,03,43,13.20
2016,11,09,03,44,13.20
2016,11,09,03,45,13.20
2016,11,09,03,46,13.20
2016,11,09,03,47,13.20
2016,11,09,03,48,13.10
2016,11,09,03,49,13.10
2016,11,09,03,50,13.10
2016,11,09,03,51,13.10
2016,11,09,03,52,13.10
2016,11,09,03,53,13.10
2016,11,09,03,54,13.10
2016,11,09,03,55,13.10
2016,11,09,03,56,13.10
2016,11,09,03,57,13.00
2016,11,09,03,58,13.00
2016,11,09,03,59,13.00
2016,11,09,04,00,13.00
2016,11,09,04,01,13.00
2016,11,09,04,02,13.00
2016,11,09,04,03,13.00
2016,11,09,04,04,12.90
2016,11,09,04,05,12.90
2016,11,09,04,06,12.90
2016,11,09,04,07,12.90
2016,11,09,04,08,12.90
2016,11,09,04,09,12.90
2016,11,09,04,10,12.90
2016,11,09,04,11,12.90
2016,11,09,04,12,12.90
2016,11,09,04,13,12.90
2016,11,09,04,14,12.90
2016,11,09,04,15,12.90
2016,11,09,04,16,12.80
2016,11,09,04,17,12.80
2016,11,09,04,18,12.80
2016,11,09,04,19,12.80
2016,11,09,04,20,12.80
2016,11,09,04,21,12.80
2016,11,09,04,22,12.80
2016,11,09,04,23,12.80
2016,11,09,04,24,12.80
2016,11,09,04,25,12.80
2016,11,09,04,26,12.80
2016,11,09,04,27,12.80
2016,11,09,04,28,12.80
2016,11,09,04,29,12.70
2016,11,09,04,30,12.70
2016,11,09,04,31,12.70
2016,11,09,04,32,12.70
2016,11,09,04,33,12.70
2016,11,09,04,34,12.70
2016,11,09,04,35,12.70
2016,11,09,04,36,12.70
2016,11,09,04,37,12.70
2016,11,09,04,38,12.70
2016,11,09,04,39,12.60
2016,11,09,04,40,12.60
2016,11,09,04,41,12.60
2016,11,09,04,42,12.60
2016,11,09,04,43,12.60
2016,11,09,04,44,12.60
2016,11,09,04,45,12.60
2016,11,09,04,46,12.60
2016,11,09,04,47,12.60
2016,11,09,04,48,12.60
2016,11,09,04,49,12.60
2016,11,09,04,50,12.60
2016,11,09,04,51,12.60
2016,11,09,04,52,12.60
2016,11,09,04,53,12.60
2016,11,09,04,54,12.60
2016,11,09,04,55,12.60
2016,11,09,04,56,12.60
2016,11,09,04,57,12.60
2016,11,09,04,58,12.60
2016,11,09,04,59,12.60
2016,11,09,05,00,12.60
2016,11,09,05,01,12.60
2016,11,09,05,02,12.60
2016,11,09,05,03,12.60
2016,11,09,05,04,12.60
2016,11,09,05,05,12.60
2016,11,09,05,06,12.60
2016,11,09,05,07,12.60
2016,11,09,05,08,12.60
2016,11,09,05,09,12.60
2016,11,09,05,10,12.60
2016,11,09,05,11,12.60
2016,11,09,05,12,12.60
2016,11,09,05,13,12.60
2016,11,09,05,14,12.60
2016,11,09,05,15,12.60
2016,11,09,05,16,12.60
2016,11,09,05,17,12.60
2016,11,09,05,18,12.60
2016,11,09,05,19,12.60
2016,11,09,05,20,12.60
2016,11,09,05,21,12.60
2016,11,09,05,22,12.60
2016,11,09,05,23,12.60
2016,11,09,05,24,12.60
2016,11,09,05,25,12.60
2016,11,09,05,26,12.60
2016,11,09,05,27,12.60
2016,11,09,05,28,12.60
2016,11,09,05,29,12.60
2016,11,09,05,30,12.50
2016,11,09,05,31,12.50
2016,11,09,05,32,12.50
2016,11,09,05,33,12.50
2016,11,09,05,34,12.50
2016,11,09,05,35,12.50
2016,11,09,05,36,12.50
2016,11,09,05,37,12.50
2016,11,09,05,38,12.50
2016,11,09,05,39,12.60
2016,11,09,05,40,12.60
2016,11,09,05,41,12.60
2016,11,09,05,42,12.60
2016,11,09,05,43,12.60
2016,11,09,05,44,12.60
2016,11,09,05,45,12.60
2016,11,09,05,46,12.60
2016,11,09,05,47,12.60
2016,11,09,05,48,12.60
2016,11,09,05,49,12.60
2016,11,09,05,50,12.60
2016,11,09,05,51,12.60
2016,11,09,05,52,12.60
2016,11,09,05,53,12.60
2016,11,09,05,54,12.60
2016,11,09,05,55,12.60
2016,11,09,05,56,12.60
2016,11,09,05,57,12.60
2016,11,09,05,58,12.60
2016,11,09,05,59,12.60
2016,11,09,06,00,12.60
2016,11,09,06,01,12.60
2016,11,09,06,02,12.60
2016,11,09,06,03,12.60
2016,11,09,06,04,12.60
2016,11,09,06,05,12.60
2016,11,09,06,06,12.60
2016,11,09,06,07,12.60
2016,11,09,06,08,12.60
2016,11,09,06,09,12.60
2016,11,09,06,10,12.60
2016,11,09,06,11,12.60
2016,11,09,06,12,12.60
2016,11,09,06,13,12.60
2016,11,09,06,14,12.60
2016,11,09,06,15,12.60
2016,11,09,06,16,12.60
2016,11,09,06,17,12.60
2016,11,09,06,18,12.60
2016,11,09,06,19,12.60
2016,11,09,06,20,12.60
2016,11,09,06,21,12.60
2016,11,09,06,22,12.60
2016,11,09,06,23,12.70
2016,11,09,06,24,12.70
2016,11,09,06,25,12.70
2016,11,09,06,26,12.70
2016,11,09,06,27,12.70
2016,11,09,06,28,12.70
2016,11,09,06,29,12.70
2016,11,09,06,30,12.70
2016,11,09,06,31,12.70
2016,11,09,06,32,12.70
2016,11,09,06,33,12.70
2016,11,09,06,34,12.70
2016,11,09,06,35,12.70
2016,11,09,06,36,12.70
2016,11,09,06,37,12.70
2016,11,09,06,38,12.70
2016,11,09,06,39,12.70
2016,11,09,06,40,12.70
2016,11,09,06,41,12.70
2016,11,09,06,42,12.70
2016,11,09,06,43,12.80
2016,11,09,06,44,12.80
2016,11,09,06,45,12.80
2016,11,09,06,46,12.80
2016,11,09,06,47,12.80
2016,11,09,06,48,12.80
2016,11,09,06,49,12.80
2016,11,09,06,50,12.80
2016,11,09,06,51,12.80
2016,11,09,06,52,12.80
2016,11,09,06,53,12.80
2016,11,09,06,54,12.80
2016,11,09,06,55,12.80
2016,11,09,06,56,12.80
2016,11,09,06,57,12.80
2016,11,09,06,58,12.90
2016,11,09,06,59,12.90
2016,11,09,07,00,12.90
2016,11,09,07,01,12.90
2016,11,09,07,02,12.90
2016,11,09,07,03,12.90
2016,11,09,07,04,12.90
2016,11,09,07,05,12.90
2016,11,09,07,06,12.90
2016,11,09,07,07,12.80
2016,11,09,07,08,12.80
2016,11,09,07,09,12.80
2016,11,09,07,10,12.80
2016,11,09,07,11,12.80
2016,11,09,07,12,12.80
2016,11,09,07,13,12.80
2016,11,09,07,14,12.80
2016,11,09,07,15,12.80
2016,11,09,07,16,12.80
2016,11,09,07,17,12.80
2016,11,09,07,18,12.80
2016,11,09,07,19,12.80
2016,11,09,07,20,12.80
2016,11,09,07,21,12.80
2016,11,09,07,22,12.80
2016,11,09,07,23,12.80
2016,11,09,07,24,12.80
2016,11,09,07,25,12.80
2016,11,09,07,26,12.80
2016,11,09,07,27,12.80
2016,11,09,07,28,12.80
2016,11,09,07,29,12.80
2016,11,09,07,30,12.80
2016,11,09,07,31,12.80
2016,11,09,07,32,12.80
2016,11,09,07,33,12.80
2016,11,09,07,34,12.80
2016,11,09,07,35,12.80
2016,11,09,07,36,12.80
2016,11,09,07,37,12.80
2016,11,09,07,38,12.80
2016,11,09,07,39,12.80
2016,11,09,07,40,12.80
2016,11,09,07,41,12.80
2016,11,09,07,42,12.80
2016,11,09,07,43,12.80
2016,11,09,07,44,12.80
2016,11,09,07,45,12.80
2016,11,09,07,46,12.80
2016,11,09,07,47,12.80
2016,11,09,07,48,12.80
2016,11,09,07,49,12.80
2016,11,09,07,50,12.80
2016,11,09,07,51,12.80
2016,11,09,07,52,12.80
2016,11,09,07,53,12.80
2016,11,09,07,54,12.80
2016,11,09,15,20,14.70
2016,11,09,15,23,14.60
2016,11,09,15,24,14.60
2016,11,09,15,25,14.60
2016,11,09,15,26,14.50
2016,11,09,15,27,14.50
2016,11,09,15,28,14.50
2016,11,09,15,29,14.50
2016,11,09,15,30,14.50
2016,11,09,15,31,14.40
2016,11,09,15,32,14.40
2016,11,09,15,33,14.50
2016,11,09,15,34,14.50
2016,11,09,15,35,14.60
2016,11,09,15,36,14.60
2016,11,09,15,37,14.60
2016,11,09,15,38,14.60
2016,11,09,15,39,14.60
2016,11,09,15,40,14.60
2016,11,09,15,41,14.60
2016,11,09,15,42,14.50
2016,11,09,15,43,14.50
2016,11,09,15,44,14.50
2016,11,09,15,45,14.40
2016,11,09,15,46,14.40
2016,11,09,15,47,14.40
2016,11,09,15,48,14.40
2016,11,09,15,49,14.40
2016,11,09,15,50,14.40
2016,11,09,15,51,14.40
2016,11,09,15,52,14.30
2016,11,09,15,53,14.30
2016,11,09,15,54,14.30
2016,11,09,15,55,14.30
2016,11,09,15,56,14.30
2016,11,09,15,57,14.30
2016,11,09,15,58,14.30
2016,11,09,15,59,14.30
2016,11,09,16,00,14.30
2016,11,09,16,01,14.20
2016,11,09,16,02,14.20
2016,11,09,16,03,14.20
2016,11,09,16,04,14.20
2016,11,09,16,05,14.20
2016,11,09,16,06,14.20
2016,11,09,16,07,14.20
2016,11,09,16,08,14.20
2016,11,09,16,09,14.20
2016,11,09,16,10,14.20
2016,11,09,16,11,14.10
2016,11,09,16,12,14.10
2016,11,09,16,13,14.10
2016,11,09,16,14,14.00
2016,11,09,16,15,14.00
2016,11,09,16,16,14.00
2016,11,09,16,17,14.00
2016,11,09,16,18,14.00
2016,11,09,16,19,14.00
2016,11,09,16,20,14.00
2016,11,09,16,21,14.00
2016,11,09,16,22,14.00
2016,11,09,16,23,14.00
2016,11,09,16,24,13.90
2016,11,09,16,25,13.90
2016,11,09,16,26,13.90
2016,11,09,16,27,13.90
2016,11,09,16,28,13.80
2016,11,09,16,29,13.80
2016,11,09,16,30,13.80
2016,11,09,16,31,13.80
2016,11,09,16,32,13.80
2016,11,09,16,33,13.80
2016,11,09,16,34,13.70
2016,11,09,16,35,13.70
2016,11,09,16,36,13.70
2016,11,09,16,37,13.70
2016,11,09,16,38,13.70
2016,11,09,16,39,13.70
2016,11,09,16,40,13.70
2016,11,09,16,41,13.70
2016,11,09,16,42,13.70
2016,11,09,16,43,13.70
2016,11,09,16,44,13.70
2016,11,09,16,45,13.70
2016,11,09,16,46,13.70
2016,11,09,16,47,13.70
2016,11,09,16,48,13.70
2016,11,09,16,49,13.70
2016,11,09,16,50,13.60
2016,11,09,16,51,13.60
2016,11,09,16,52,13.60
2016,11,09,16,53,13.60
2016,11,09,16,54,13.60
2016,11,09,16,55,13.60
2016,11,09,16,56,13.60
2016,11,09,16,57,13.60
2016,11,09,16,58,13.60
2016,11,09,16,59,13.60
2016,11,09,17,00,13.60
2016,11,09,17,01,13.60
2016,11,09,17,02,13.60
2016,11,09,17,03,13.60
2016,11,09,17,04,13.50
2016,11,09,17,05,13.50
2016,11,09,17,06,13.50
2016,11,09,17,07,13.50
2016,11,09,17,08,13.50
2016,11,09,17,09,13.50
2016,11,09,17,10,13.50
2016,11,09,17,11,13.50
2016,11,09,17,12,13.50
2016,11,09,17,13,13.50
2016,11,09,17,14,13.50
2016,11,09,17,15,13.50
2016,11,09,17,16,13.50
2016,11,09,17,17,13.50
2016,11,09,17,18,13.50
2016,11,09,17,19,13.40
2016,11,09,17,20,13.40
2016,11,09,17,21,13.40
2016,11,09,17,22,13.40
2016,11,09,17,23,13.40
2016,11,09,17,24,13.40
2016,11,09,17,25,13.40
2016,11,09,17,26,13.40
2016,11,09,17,27,13.40
2016,11,09,17,28,13.30
2016,11,09,17,29,13.30
2016,11,09,17,30,13.30
2016,11,09,17,31,13.30
2016,11,09,17,32,13.30
2016,11,09,17,33,13.30
2016,11,09,17,34,13.30
2016,11,09,17,35,13.30
2016,11,09,17,36,13.30
2016,11,09,17,37,13.30
2016,11,09,17,38,13.30
2016,11,09,17,39,13.30
2016,11,09,17,40,13.30
2016,11,09,17,41,13.30
2016,11,09,17,42,13.30
2016,11,09,17,43,13.30
2016,11,09,17,44,13.30
2016,11,09,17,45,13.30
2016,11,09,17,46,13.30
2016,11,09,17,47,13.30
2016,11,09,17,48,13.30
2016,11,09,17,49,13.30
2016,11,09,17,50,13.30
2016,11,09,17,51,13.30
2016,11,09,17,52,13.30
2016,11,09,17,53,13.30
2016,11,09,17,54,13.30
2016,11,09,17,55,13.30
2016,11,09,17,56,13.30
2016,11,09,17,57,13.30
2016,11,09,17,58,13.30
2016,11,09,17,59,13.30
2016,11,09,18,00,13.30
2016,11,09,18,01,13.30
2016,11,09,18,02,13.30
2016,11,09,18,03,13.30
2016,11,09,18,04,13.30
2016,11,09,18,05,13.30
2016,11,09,18,06,13.30
2016,11,09,18,07,13.30
2016,11,09,18,08,13.30
2016,11,09,18,09,13.30
2016,11,09,18,10,13.30
2016,11,09,18,11,13.30
2016,11,09,18,12,13.30
2016,11,09,18,13,13.30
2016,11,09,18,14,13.30
2016,11,09,18,15,13.20
2016,11,09,18,16,13.20
2016,11,09,18,17,13.20
2016,11,09,18,18,13.20
2016,11,09,18,19,13.20
2016,11,09,18,20,13.20
2016,11,09,18,21,13.20
2016,11,09,18,22,13.20
2016,11,09,18,23,13.20
2016,11,09,18,24,13.20
2016,11,09,18,25,13.20
2016,11,09,18,26,13.20
2016,11,09,18,27,13.20
2016,11,09,18,28,13.20
2016,11,09,18,29,13.20
2016,11,09,18,30,13.20
2016,11,09,18,31,13.20
2016,11,09,18,32,13.20
2016,11,09,18,33,13.20
2016,11,09,18,34,13.20
2016,11,09,18,35,13.20
2016,11,09,18,36,13.20
2016,11,09,18,37,13.20
2016,11,09,18,38,13.10
2016,11,09,18,39,13.10
2016,11,09,18,40,13.10
2016,11,09,18,41,13.10
2016,11,09,18,42,13.20
2016,11,09,18,43,13.20
2016,11,09,18,44,13.10
2016,11,09,18,45,13.10
2016,11,09,18,46,13.10
2016,11,09,18,47,13.10
2016,11,09,18,48,13.10
2016,11,09,18,49,13.10
2016,11,09,18,50,13.10
2016,11,09,18,51,13.10
2016,11,09,18,52,13.10
2016,11,09,18,53,13.10
2016,11,09,18,54,13.10
2016,11,09,18,55,13.10
2016,11,09,18,56,13.10
2016,11,09,18,57,13.10
2016,11,09,18,58,13.10
2016,11,09,18,59,13.10
2016,11,09,19,00,13.10
2016,11,09,19,01,13.10
2016,11,09,19,02,13.10
2016,11,09,19,03,13.10
2016,11,09,19,04,13.10
2016,11,09,19,05,13.10
2016,11,09,19,06,13.10
2016,11,09,19,07,13.10
2016,11,09,19,08,13.10
2016,11,09,19,09,13.10
2016,11,09,19,10,13.10
2016,11,09,19,11,13.10
2016,11,09,19,12,13.10
2016,11,09,19,13,13.10
2016,11,09,19,14,13.10
2016,11,09,19,15,13.10
2016,11,09,19,16,13.10
2016,11,09,19,17,13.10
2016,11,09,19,18,13.10
2016,11,09,19,19,13.10
2016,11,09,19,20,13.10
2016,11,09,19,21,13.20
2016,11,09,19,22,13.20
2016,11,09,19,23,13.20
2016,11,09,19,24,13.20
2016,11,09,19,25,13.20
2016,11,09,19,26,13.20
2016,11,09,19,27,13.20
2016,11,09,19,28,13.20
2016,11,09,19,29,13.20
2016,11,09,19,30,13.20
2016,11,09,19,31,13.20
2016,11,09,19,32,13.20
2016,11,09,19,33,13.20
2016,11,09,19,34,13.20
2016,11,09,19,35,13.20
2016,11,09,19,36,13.20
2016,11,09,19,37,13.20
2016,11,09,19,38,13.20
2016,11,09,19,39,13.20
2016,11,09,19,40,13.20
2016,11,09,19,41,13.20
2016,11,09,19,42,13.20
2016,11,09,19,43,13.20
2016,11,09,19,44,13.20
2016,11,09,19,45,13.20
2016,11,09,19,46,13.20
2016,11,09,19,47,13.30
2016,11,09,19,48,13.30
2016,11,09,19,49,13.30
2016,11,09,19,50,13.30
2016,11,09,19,51,13.30
2016,11,09,19,52,13.30
2016,11,09,19,53,13.30
2016,11,09,19,54,13.20
2016,11,09,19,55,13.20
2016,11,09,19,56,13.20
2016,11,09,19,57,13.30
2016,11,09,19,58,13.30
2016,11,09,19,59,13.30
2016,11,09,20,00,13.30
2016,11,09,20,01,13.30
2016,11,09,20,02,13.30
2016,11,09,20,03,13.30
2016,11,09,20,04,13.30
2016,11,09,20,05,13.30
2016,11,09,20,06,13.30
2016,11,09,20,07,13.30
2016,11,09,20,08,13.30
2016,11,09,20,09,13.30
2016,11,09,20,10,13.30
2016,11,09,20,11,13.30
2016,11,09,20,12,13.30
2016,11,09,20,13,13.30
2016,11,09,20,14,13.30
2016,11,09,20,15,13.30
2016,11,09,20,16,13.30
2016,11,09,20,17,13.30
2016,11,09,20,18,13.30
2016,11,09,20,19,13.30
2016,11,09,20,20,13.30
2016,11,09,20,21,13.30
2016,11,09,20,22,13.30
2016,11,09,20,23,13.30
2016,11,09,20,24,13.30
2016,11,09,20,25,13.30
2016,11,09,20,26,13.30
2016,11,09,20,27,13.30
2016,11,09,20,28,13.30
2016,11,09,20,29,13.30
2016,11,09,20,30,13.30
2016,11,09,20,31,13.30
2016,11,09,20,32,13.30
2016,11,09,20,33,13.30
2016,11,09,20,34,13.30
2016,11,09,20,35,13.30
2016,11,09,20,36,13.30
2016,11,09,20,37,13.30
2016,11,09,20,38,13.30
2016,11,09,20,39,13.30
2016,11,09,20,40,13.30
2016,11,09,20,41,13.30
2016,11,09,20,42,13.30
2016,11,09,20,43,13.30
2016,11,09,20,44,13.40
2016,11,09,20,45,13.30
2016,11,09,20,46,13.30
2016,11,09,20,47,13.40
2016,11,09,20,48,13.40
2016,11,09,20,49,13.40
2016,11,09,20,50,13.40
2016,11,09,20,51,13.40
2016,11,09,20,52,13.40
2016,11,09,20,53,13.40
2016,11,09,20,54,13.40
2016,11,09,20,55,13.40
2016,11,09,20,56,13.40
2016,11,09,20,57,13.40
2016,11,09,20,58,13.40
2016,11,09,20,59,13.40
2016,11,09,21,00,13.40
2016,11,09,21,01,13.40
2016,11,09,21,02,13.40
2016,11,09,21,03,13.40
2016,11,09,21,04,13.40
2016,11,09,21,05,13.40
2016,11,09,21,06,13.30
2016,11,09,21,07,13.40
2016,11,09,21,08,13.30
2016,11,09,21,09,13.30
2016,11,09,21,10,13.30
2016,11,09,21,11,13.30
2016,11,09,21,12,13.30
2016,11,09,21,13,13.30
2016,11,09,21,14,13.30
2016,11,09,21,15,13.30
2016,11,09,21,16,13.30
2016,11,09,21,17,13.30
2016,11,09,21,18,13.30
2016,11,09,21,19,13.30
2016,11,09,21,20,13.30
2016,11,09,21,21,13.20
2016,11,09,21,22,13.20
2016,11,09,21,23,13.20
2016,11,09,21,24,13.20
2016,11,09,21,25,13.20
2016,11,09,21,26,13.20
2016,11,09,21,27,13.20
2016,11,09,21,28,13.20
2016,11,09,21,29,13.20
2016,11,09,21,30,13.20
2016,11,09,21,31,13.10
2016,11,09,21,32,13.10
2016,11,09,21,33,13.10
2016,11,09,21,34,13.10
2016,11,09,21,35,13.10
2016,11,09,21,36,13.10
2016,11,09,21,37,13.10
2016,11,09,21,38,13.10
2016,11,09,21,39,13.10
2016,11,09,21,40,13.10
2016,11,09,21,41,13.10
2016,11,09,21,42,13.10
2016,11,09,21,43,13.10
2016,11,09,21,44,13.10
2016,11,09,21,45,13.10
2016,11,09,21,46,13.10
2016,11,09,21,47,13.00
2016,11,09,21,48,13.00
2016,11,09,21,49,13.00
2016,11,09,21,50,13.10
2016,11,09,21,51,13.10
2016,11,09,21,52,13.00
2016,11,09,21,53,13.00
2016,11,09,21,54,13.10
2016,11,09,21,55,13.10
2016,11,09,21,56,13.10
2016,11,09,21,57,13.10
2016,11,09,21,58,13.10
2016,11,09,21,59,13.10
2016,11,09,22,00,13.10
2016,11,09,22,01,13.10
2016,11,09,22,02,13.10
2016,11,09,22,03,13.10
2016,11,09,22,04,13.10
2016,11,09,22,05,13.10
2016,11,09,22,06,13.10
2016,11,09,22,07,13.10
2016,11,09,22,08,13.10
2016,11,09,22,09,13.10
2016,11,09,22,10,13.10
2016,11,09,22,11,13.10
2016,11,09,22,12,13.10
2016,11,09,22,13,13.10
2016,11,09,22,14,13.10
2016,11,09,22,15,13.10
2016,11,09,22,16,13.10
2016,11,09,22,17,13.10
2016,11,09,22,18,13.10
2016,11,09,22,19,13.10
2016,11,09,22,20,13.10
2016,11,09,22,21,13.10
2016,11,09,22,22,13.10
2016,11,09,22,23,13.20
2016,11,09,22,24,13.20
2016,11,09,22,25,13.20
2016,11,09,22,26,13.20
2016,11,09,22,27,13.20
2016,11,09,22,28,13.20
2016,11,09,22,29,13.20
2016,11,09,22,30,13.20
2016,11,09,22,31,13.20
2016,11,09,22,32,13.20
2016,11,09,22,33,13.20
2016,11,09,22,34,13.20
2016,11,09,22,35,13.30
2016,11,09,22,36,13.30
2016,11,09,22,37,13.30
2016,11,09,22,38,13.30
2016,11,09,22,39,13.30
2016,11,09,22,40,13.30
2016,11,09,22,41,13.30
2016,11,09,22,42,13.30
2016,11,09,22,43,13.30
2016,11,09,22,44,13.30
2016,11,09,22,45,13.30
2016,11,09,22,46,13.30
2016,11,09,22,47,13.30
2016,11,09,22,48,13.30
2016,11,09,22,49,13.30
2016,11,09,22,50,13.30
2016,11,09,22,51,13.30
2016,11,09,22,52,13.30
2016,11,09,22,53,13.30
2016,11,09,22,54,13.30
2016,11,09,22,55,13.30
2016,11,09,22,56,13.30
2016,11,09,22,57,13.30
2016,11,09,22,58,13.30
2016,11,09,22,59,13.30
2016,11,09,23,00,13.30
2016,11,09,23,01,13.30
2016,11,09,23,02,13.30
2016,11,09,23,03,13.30
2016,11,09,23,04,13.30
2016,11,09,23,05,13.30
2016,11,09,23,06,13.30
2016,11,09,23,07,13.30
2016,11,09,23,08,13.30
2016,11,09,23,09,13.30
2016,11,09,23,10,13.30
2016,11,09,23,11,13.30
2016,11,09,23,12,13.30
2016,11,09,23,13,13.30
2016,11,09,23,14,13.30
2016,11,09,23,15,13.30
2016,11,09,23,16,13.30
2016,11,09,23,17,13.30
2016,11,09,23,18,13.30
2016,11,09,23,19,13.30
2016,11,09,23,20,13.30
2016,11,09,23,21,13.30
2016,11,09,23,22,13.30
2016,11,09,23,23,13.30
2016,11,09,23,24,13.30
2016,11,09,23,25,13.30
2016,11,09,23,26,13.30
2016,11,09,23,27,13.30
2016,11,09,23,28,13.30
2016,11,09,23,29,13.30
2016,11,09,23,30,13.30
2016,11,09,23,31,13.30
2016,11,09,23,32,13.30
2016,11,09,23,33,13.30
2016,11,09,23,34,13.30
2016,11,09,23,35,13.30
2016,11,09,23,36,13.30
2016,11,09,23,37,13.30
2016,11,09,23,38,13.30
2016,11,09,23,39,13.30
2016,11,09,23,40,13.30
2016,11,09,23,41,13.30
2016,11,09,23,42,13.30
2016,11,09,23,43,13.30
2016,11,09,23,44,13.30
2016,11,09,23,45,13.30
2016,11,09,23,46,13.30
2016,11,09,23,47,13.30
2016,11,09,23,48,13.30
2016,11,09,23,49,13.30
2016,11,09,23,50,13.20
2016,11,09,23,51,13.20
2016,11,09,23,52,13.20
2016,11,09,23,53,13.20
2016,11,09,23,54,13.20
2016,11,09,23,55,13.20
2016,11,09,23,56,13.20
2016,11,09,23,57,13.20
2016,11,09,23,58,13.20
2016,11,09,23,59,13.20
